Regional Weather Roundup
Issued by NWS

Home | Current Version | Previous Version | Text Only | Print | Product List | Glossary On
Versions: 1 2 3 4 5 6 7 8 9 10 11 12 13 14 15 16 17 18 19 20 21 22 23 24 25 26 27 28 29 30 31 32 33 34 35 36 37 38 39 40 41 42 43 44 45 46 47 48 49 50
837
ASUS45 KTFX 300210
RWRMT
MONTANA REGIONAL WEATHER ROUNDUP
NATIONAL WEATHER SERVICE GREAT FALLS MT
800 PM MDT WED MAR 29 2017

NOTE: "FAIR" INDICATES FEW OR NO CLOUDS BELOW 12000 FEET WITH NO
SIGNIFICANT WEATHER AND/OR OBSTRUCTIONS TO VISIBILITY.

MTZ001>007-043-300300-
WEST OF THE DIVIDE

CITY           SKY/WX    TMP DP  RH WIND       PRES   REMARKS
KALISPELL      CLOUDY    44  41  89 SW3       29.84F
MISSOULA       CLOUDY    49  42  77 SE6       29.91F
BUTTE          CLOUDY    46  34  62 W6        29.93F
MULLAN PASS    LGT RAIN  34  34 100 SW9       29.86F VSB 1/2 WCI  27
ANACONDA         N/A     45  36  70 S13       29.92S
DEER LODGE       N/A     45  43  93 N5        29.93S
EUREKA           N/A     45  37  76 S10       29.81F
HAMILTON         N/A     46  39  76 SE13      29.92F
RONAN            N/A     49  41  74 SE2       29.92F
$$

MTZ008-052>055-300300-
SOUTHWEST MONTANA

CITY           SKY/WX    TMP DP  RH WIND       PRES   REMARKS
BOZEMAN        LGT RAIN  51  37  58 W12       29.91R
DILLON         CLOUDY    45  38  76 S7        29.94F
W YELLOWSTONE  CLOUDY    36  32  87 SW7       30.05F WCI  30
ENNIS          CLOUDY    43  36  75 S18       30.02S HAZE
THREE FORKS      N/A     48  -5  11 CALM      29.92S
$$

MTZ009-010-012-014-046-048-049-054-300300-
EAST SLOPES AND CENTRAL MONTANA

CITY           SKY/WX    TMP DP  RH WIND       PRES   REMARKS
CUT BANK       CLOUDY    47  32  56 W24G32    29.74F
GREAT FALLS    CLOUDY    52  34  50 SW18      29.78R
MALMSTROM AFB  PTCLDY    54  35  49 SW17      29.79S
HELENA         CLOUDY    52  39  61 SW6       29.87R
AUGUSTA          N/A     47  32  57 SW16      29.79S
BOWMANS CRNR     N/A     45  35  67 SW21      29.79F
CHOTEAU          N/A     52  34  50 SW10      29.78S
FAIRFIELD        N/A     50  32  49 SW13      29.77S
POWER            N/A     49  34  55 SW12      29.77S
RAYNESFORD     MOCLDY    54  33  44 W21G33    29.79F
$$

MTZ011-013-016-021-045-047-050-051-300300-
NORTH CENTRAL MONTANA

CITY           SKY/WX    TMP DP  RH WIND       PRES   REMARKS
HAVRE          CLOUDY    51  36  56 S6        29.76F
LEWISTOWN      CLOUDY    50  32  50 W3        29.82F
N BAR RANCH    CLOUDY    50  30  46 W6        29.85S
CHINOOK          N/A     54  36  50 SW3       29.77F
DENTON         MOCLDY    53  33  46 W8        29.76F
FORT BENTON      N/A     57  34  41 MISG      29.77F
GEYSER         MOCLDY    49  33  52 SW12      29.79F
GRASS RANGE    CLOUDY    51  33  50 W7        29.78F
JUDITH GAP     MOCLDY    50  32  50 W9        29.83F
STANFORD       MOCLDY    49  33  52 S9        29.81F
WINIFRED       CLOUDY    52  32  46 W5        29.79F
$$

MTZ017>020-022>027-061-062-300300-
NORTHEAST MONTANA

CITY           SKY/WX    TMP DP  RH WIND       PRES   REMARKS
GLASGOW        MOCLDY    55  27  34 CALM      29.81F
JORDAN           N/A     50  32  50 E7        29.81F
SIDNEY         PTCLDY    46  30  53 NW6       29.85F
WOLF POINT     CLOUDY    52  31  44 CALM      29.83F
MALTA          CLOUDY    52  34  50 CALM      29.79S
PLENTYWOOD       N/A     50  28  43 W7        29.83S
POPLAR           N/A     52  30  43 S3        29.85S
SCOBEY           N/A     46  27  48 CALM      29.83
$$

MTZ028>42-056>058-300300-
SOUTHCENTRAL AND SOUTHEAST MONTANA

CITY           SKY/WX    TMP DP  RH WIND       PRES   REMARKS
BAKER          PTCLDY    49  29  46 W6        29.89S
BILLINGS       CLOUDY    56  36  47 E3        29.83S
LIVINGSTON     CLOUDY    51  30  44 SW30G38   29.87S
MILES CITY     PTCLDY    55  28  35 E3        29.84F
BIG TIMBER     MOCLDY    52  32  46 W30G38    29.86S
FORSYTH          N/A     52  36  54 CALM      29.83F
HARLOWTON      CLOUDY    53  34  48 W22G28    29.83S
LAUREL           N/A     53  30  41 CALM      29.84R
$$

REGIONAL REPORTS...DAKOTAS

CITY           SKY/WX    TMP DP  RH WIND       PRES   REMARKS
WILLISTON      CLEAR     50  31  48 W8        29.85S
MINOT          PTCLDY    46  43  89 SE3       29.85F
DICKINSON      CLEAR     50  28  42 NW5       29.84F
BEACH            N/A     45  28  53 SW7       29.90S
TIOGA            N/A     45  34  65 SW8       29.86S
WATFORD CITY     N/A     45  34  65 CALM      29.85S
BISMARCK       CLOUDY    55  38  52 S12       29.91F
GRAND FORKS    PTCLDY    51  42  71 S16       29.99S
FARGO          CLEAR     50  37  61 S22G29    30.05S
BUFFALO SD       N/A     53  36  52 E9        29.83S
RAPID CITY     PTCLDY    45  38  76 SE9       29.94S
$$

REGIONAL REPORTS...WYOMING/IDAHO/WASHINGTON

CITY           SKY/WX    TMP DP  RH WIND       PRES   REMARKS
GILLETTE       CLEAR     41  28  60 CALM      29.88F HAZE
SHERIDAN       CLEAR     48  33  56 SW3       29.85S
BUFFALO WY     CLEAR     51  27  39 N5        29.88F
CODY           CLOUDY    51  28  41 W18G29    29.90F
YELLOWSTONE LA   N/A     32  30  92 CALM      30.07F
IDAHO FALLS    CLOUDY    51  36  56 SW10      30.03F
SALMON         CLOUDY    45  43  93 CALM      29.96F
BOISE          LGT RAIN  53  47  79 CALM      30.00S
SPOKANE        CLOUDY    49  44  83 S15       29.83S
$$

REGIONAL REPORTS...ALBERTA

CITY           SKY/WX    TMP DP  RH WIND       PRES   REMARKS
EDMONTON       MOCLDY    43  34  70 SE6       29.70F
CALGARY        MOCLDY    46  30  53 SE9       29.64F
LETHBRIDGE     MOCLDY    48  30  49 W5        29.70S
MEDICINE HAT   CLOUDY    52  32  46 S6        29.72F
WATERTON GATE    N/A     43  30  61 SW21G30     N/A
CARDSTON         N/A     48  28  46 SW9G17      N/A
MILK RIVER       N/A     48  32  53 SW6         N/A
$$

REGIONAL REPORTS...SASKATCHEWAN

CITY           SKY/WX    TMP DP  RH WIND       PRES   REMARKS
SWIFT CURRENT  CLOUDY    46  27  46 SW7       29.76S
REGINA         MOCLDY    48  28  46 N3        29.78S
SASKATOON      MOCLDY    39  36  87 NE12      29.80S WCI  32
CYPRESS HILLS    N/A     43  27  52 S5          N/A
VAL MARIE        N/A     46  30  53 S5          N/A
ROCKGLEN         N/A     45  28  53 SW6         N/A
ASSINIBOIA       N/A     37  34  87 E5          N/A
$$




USA.gov is the U.S. government's official web portal to all federal, state and local government web resources and services.